contact:dominique.lefevre@mio.osupytheas.fr, maurice.libes@osupytheas.fr, didier.mallarino@osupytheas.fr
Project:EMSO http://www.emso-fr.org/EMSO-France
Depth: 2436.0 m
Title:EMSO Ligure Ouest : Data MII capteur OXYGEN
DateTime,Latitude,Longitude,Optode-Type,Optode_Serial,Oxygen,Saturation_Oxygen,Temperature
DateTime,Latitude,Longitude,Optode-Type,Optode_Serial,µmol.l-1,%,degC
2019-05-27T00:02:08,42.805,6.029,4330,1995,194.430,59.463,13.291
2019-05-27T00:05:08,42.805,6.029,4330,1995,194.452,59.469,13.290
2019-05-27T00:08:08,42.805,6.029,4330,1995,194.305,59.428,13.293
2019-05-27T00:11:08,42.805,6.029,4330,1995,194.340,59.437,13.292
2019-05-27T00:14:08,42.805,6.029,4330,1995,194.364,59.442,13.290
2019-05-27T00:17:08,42.805,6.029,4330,1995,194.440,59.468,13.292
2019-05-27T00:20:08,42.805,6.029,4330,1995,194.348,59.439,13.291
2019-05-27T00:23:08,42.805,6.029,4330,1995,194.432,59.463,13.290
2019-05-27T00:26:08,42.805,6.029,4330,1995,194.550,59.501,13.292
2019-05-27T00:29:08,42.805,6.029,4330,1995,194.454,59.473,13.292
2019-05-27T00:32:08,42.805,6.029,4330,1995,194.496,59.483,13.291
2019-05-27T00:35:08,42.805,6.029,4330,1995,194.477,59.477,13.291
2019-05-27T00:38:08,42.805,6.029,4330,1995,194.427,59.464,13.292
2019-05-27T00:41:08,42.805,6.029,4330,1995,194.332,59.433,13.291
2019-05-27T00:44:08,42.805,6.029,4330,1995,194.286,59.420,13.291
2019-05-27T00:47:08,42.805,6.029,4330,1995,194.345,59.436,13.290
2019-05-27T00:50:08,42.805,6.029,4330,1995,194.343,59.436,13.290
2019-05-27T00:53:08,42.805,6.029,4330,1995,194.420,59.462,13.292
2019-05-27T00:56:08,42.805,6.029,4330,1995,194.267,59.412,13.290
2019-05-27T00:59:08,42.805,6.029,4330,1995,194.443,59.467,13.291
2019-05-27T01:02:08,42.805,6.029,4330,1995,194.281,59.418,13.291
2019-05-27T01:05:08,42.805,6.029,4330,1995,194.244,59.408,13.292
2019-05-27T01:08:08,42.805,6.029,4330,1995,194.343,59.437,13.291
2019-05-27T01:11:08,42.805,6.029,4330,1995,194.378,59.449,13.292
2019-05-27T01:14:08,42.805,6.029,4330,1995,194.462,59.476,13.293
2019-05-27T01:17:08,42.805,6.029,4330,1995,194.442,59.468,13.292
2019-05-27T01:20:08,42.805,6.029,4330,1995,194.451,59.472,13.293
2019-05-27T01:23:08,42.805,6.029,4330,1995,194.378,59.449,13.292
2019-05-27T01:26:08,42.805,6.029,4330,1995,194.456,59.474,13.293
2019-05-27T01:29:08,42.805,6.029,4330,1995,194.295,59.423,13.291
2019-05-27T01:32:08,42.805,6.029,4330,1995,194.339,59.436,13.291
2019-05-27T01:35:08,42.805,6.029,4330,1995,194.440,59.467,13.292
2019-05-27T01:38:08,42.805,6.029,4330,1995,194.407,59.456,13.290
2019-05-27T01:41:08,42.805,6.029,4330,1995,194.493,59.487,13.294
2019-05-27T01:44:08,42.805,6.029,4330,1995,194.407,59.457,13.291
2019-05-27T01:47:08,42.805,6.029,4330,1995,194.454,59.472,13.292
2019-05-27T01:50:08,42.805,6.029,4330,1995,194.514,59.490,13.292
2019-05-27T01:53:08,42.805,6.029,4330,1995,194.380,59.447,13.290
2019-05-27T01:56:08,42.805,6.029,4330,1995,194.427,59.463,13.291
2019-05-27T01:59:08,42.805,6.029,4330,1995,194.394,59.453,13.292
2019-05-27T02:02:08,42.805,6.029,4330,1995,194.389,59.451,13.291
2019-05-27T02:05:07,42.805,6.029,4330,1995,194.352,59.441,13.292
2019-05-27T02:08:07,42.805,6.029,4330,1995,194.551,59.500,13.291
2019-05-27T02:11:07,42.805,6.029,4330,1995,194.495,59.481,13.290
2019-05-27T02:14:07,42.805,6.029,4330,1995,194.266,59.413,13.291
2019-05-27T02:17:07,42.805,6.029,4330,1995,194.250,59.409,13.292
2019-05-27T02:20:07,42.805,6.029,4330,1995,194.285,59.418,13.290
2019-05-27T02:23:07,42.805,6.029,4330,1995,194.134,59.376,13.294
2019-05-27T02:26:07,42.805,6.029,4330,1995,194.298,59.425,13.293
2019-05-27T02:29:07,42.805,6.029,4330,1995,194.409,59.457,13.291
2019-05-27T02:32:07,42.805,6.029,4330,1995,194.359,59.442,13.292
2019-05-27T02:35:07,42.805,6.029,4330,1995,194.516,59.491,13.292
2019-05-27T02:38:07,42.805,6.029,4330,1995,194.602,59.515,13.290
2019-05-27T02:41:07,42.805,6.029,4330,1995,194.351,59.439,13.291
2019-05-27T02:44:07,42.805,6.029,4330,1995,194.214,59.397,13.291
2019-05-27T02:47:07,42.805,6.029,4330,1995,194.339,59.433,13.289
2019-05-27T02:50:07,42.805,6.029,4330,1995,194.351,59.438,13.290
2019-05-27T02:53:07,42.805,6.029,4330,1995,194.440,59.469,13.293
2019-05-27T02:56:07,42.805,6.029,4330,1995,194.497,59.485,13.292
2019-05-27T02:59:07,42.805,6.029,4330,1995,194.452,59.471,13.292
2019-05-27T03:02:07,42.805,6.029,4330,1995,194.490,59.484,13.292
2019-05-27T03:05:07,42.805,6.029,4330,1995,194.634,59.527,13.292
2019-05-27T03:08:07,42.805,6.029,4330,1995,194.573,59.510,13.293
2019-05-27T03:11:07,42.805,6.029,4330,1995,194.419,59.463,13.293
2019-05-27T03:14:07,42.805,6.029,4330,1995,194.479,59.481,13.293
2019-05-27T03:17:07,42.805,6.029,4330,1995,194.499,59.488,13.293
2019-05-27T03:20:07,42.805,6.029,4330,1995,194.506,59.488,13.292
2019-05-27T03:23:07,42.805,6.029,4330,1995,194.389,59.453,13.293
2019-05-27T03:26:07,42.805,6.029,4330,1995,194.338,59.436,13.292
2019-05-27T03:29:07,42.805,6.029,4330,1995,194.326,59.439,13.297
2019-05-27T03:32:07,42.805,6.029,4330,1995,194.274,59.423,13.296
2019-05-27T03:35:07,42.805,6.029,4330,1995,194.301,59.428,13.294
2019-05-27T03:38:07,42.805,6.029,4330,1995,194.288,59.424,13.294
2019-05-27T03:41:07,42.805,6.029,4330,1995,194.216,59.401,13.293
2019-05-27T03:44:07,42.805,6.029,4330,1995,194.251,59.415,13.296
2019-05-27T03:47:07,42.805,6.029,4330,1995,194.256,59.416,13.295
2019-05-27T03:50:07,42.805,6.029,4330,1995,194.378,59.454,13.296
2019-05-27T03:53:07,42.805,6.029,4330,1995,194.403,59.460,13.295
2019-05-27T03:56:07,42.805,6.029,4330,1995,194.438,59.468,13.293
2019-05-27T03:59:07,42.805,6.029,4330,1995,194.529,59.500,13.295
2019-05-27T04:02:07,42.805,6.029,4330,1995,194.474,59.480,13.294
2019-05-27T04:05:07,42.805,6.029,4330,1995,194.392,59.457,13.295
2019-05-27T04:08:07,42.805,6.029,4330,1995,194.367,59.448,13.294
2019-05-27T04:11:07,42.805,6.029,4330,1995,194.381,59.454,13.295
2019-05-27T04:14:07,42.805,6.029,4330,1995,194.344,59.441,13.294
2019-05-27T04:17:07,42.805,6.029,4330,1995,194.302,59.427,13.293
2019-05-27T04:20:07,42.805,6.029,4330,1995,194.513,59.489,13.291
2019-05-27T04:23:07,42.805,6.029,4330,1995,194.359,59.441,13.291
2019-05-27T04:26:07,42.805,6.029,4330,1995,194.475,59.479,13.292
2019-05-27T04:29:07,42.805,6.029,4330,1995,194.316,59.432,13.294
2019-05-27T04:32:07,42.805,6.029,4330,1995,194.359,59.444,13.293
2019-05-27T04:35:07,42.805,6.029,4330,1995,194.404,59.458,13.293
2019-05-27T04:38:07,42.805,6.029,4330,1995,194.338,59.436,13.292
2019-05-27T04:41:07,42.805,6.029,4330,1995,194.393,59.455,13.293
2019-05-27T04:44:07,42.805,6.029,4330,1995,194.276,59.420,13.294
2019-05-27T04:47:07,42.805,6.029,4330,1995,194.400,59.459,13.295
2019-05-27T04:50:07,42.805,6.029,4330,1995,194.538,59.500,13.294
2019-05-27T04:53:07,42.805,6.029,4330,1995,194.460,59.476,13.294
2019-05-27T04:56:07,42.805,6.029,4330,1995,194.610,59.520,13.292
2019-05-27T04:59:07,42.805,6.029,4330,1995,194.598,59.516,13.292
2019-05-27T05:02:07,42.805,6.029,4330,1995,194.513,59.492,13.294
2019-05-27T05:05:07,42.805,6.029,4330,1995,194.600,59.517,13.292
2019-05-27T05:08:07,42.805,6.029,4330,1995,194.362,59.443,13.291
2019-05-27T05:11:07,42.805,6.029,4330,1995,194.304,59.428,13.294
2019-05-27T05:14:07,42.805,6.029,4330,1995,194.457,59.477,13.295
2019-05-27T05:17:07,42.805,6.029,4330,1995,194.526,59.497,13.294
2019-05-27T05:20:07,42.805,6.029,4330,1995,194.389,59.458,13.296
2019-05-27T05:23:07,42.805,6.029,4330,1995,194.159,59.387,13.296
2019-05-27T05:26:07,42.805,6.029,4330,1995,194.167,59.386,13.293
2019-05-27T05:29:07,42.805,6.029,4330,1995,194.051,59.351,13.293
2019-05-27T05:32:07,42.805,6.029,4330,1995,194.048,59.354,13.296
2019-05-27T05:35:07,42.805,6.029,4330,1995,194.329,59.440,13.296
2019-05-27T05:38:07,42.805,6.029,4330,1995,194.322,59.438,13.297
2019-05-27T05:41:07,42.805,6.029,4330,1995,194.355,59.443,13.293
2019-05-27T05:44:07,42.805,6.029,4330,1995,194.295,59.427,13.295
2019-05-27T05:47:07,42.805,6.029,4330,1995,194.366,59.453,13.298
2019-05-27T05:50:07,42.805,6.029,4330,1995,194.323,59.436,13.295
2019-05-27T05:53:07,42.805,6.029,4330,1995,194.190,59.395,13.295
2019-05-27T05:56:07,42.805,6.029,4330,1995,194.160,59.387,13.296
2019-05-27T05:59:07,42.805,6.029,4330,1995,194.259,59.414,13.294
2019-05-27T06:02:07,42.805,6.029,4330,1995,194.387,59.454,13.294
2019-05-27T06:05:07,42.805,6.029,4330,1995,194.223,59.404,13.294
2019-05-27T06:08:07,42.805,6.029,4330,1995,194.168,59.387,13.293
2019-05-27T06:11:07,42.805,6.029,4330,1995,194.217,59.403,13.295
2019-05-27T06:14:07,42.805,6.029,4330,1995,194.168,59.386,13.293
2019-05-27T06:17:07,42.805,6.029,4330,1995,194.343,59.443,13.296
2019-05-27T06:20:07,42.805,6.029,4330,1995,194.288,59.426,13.296
2019-05-27T06:23:07,42.805,6.029,4330,1995,194.383,59.453,13.294
2019-05-27T06:26:07,42.805,6.029,4330,1995,194.248,59.412,13.294
2019-05-27T06:29:07,42.805,6.029,4330,1995,194.206,59.400,13.295
2019-05-27T06:32:07,42.805,6.029,4330,1995,194.264,59.415,13.293
2019-05-27T06:35:07,42.805,6.029,4330,1995,194.270,59.419,13.294
2019-05-27T06:38:07,42.805,6.029,4330,1995,194.293,59.424,13.293
2019-05-27T06:41:07,42.805,6.029,4330,1995,193.992,59.335,13.295
2019-05-27T06:44:07,42.805,6.029,4330,1995,194.145,59.380,13.294
2019-05-27T06:47:07,42.805,6.029,4330,1995,194.422,59.463,13.293
2019-05-27T06:50:07,42.805,6.029,4330,1995,194.204,59.399,13.295
2019-05-27T06:53:07,42.805,6.029,4330,1995,194.243,59.411,13.295
2019-05-27T06:56:07,42.805,6.029,4330,1995,194.300,59.431,13.296
2019-05-27T06:59:07,42.805,6.029,4330,1995,194.253,59.415,13.296
2019-05-27T07:02:07,42.805,6.029,4330,1995,194.248,59.412,13.294
2019-05-27T07:05:07,42.805,6.029,4330,1995,194.121,59.373,13.294
2019-05-27T07:08:07,42.805,6.029,4330,1995,194.186,59.391,13.293
2019-05-27T07:11:07,42.805,6.029,4330,1995,194.138,59.379,13.295
2019-05-27T07:14:07,42.805,6.029,4330,1995,193.956,59.325,13.296
2019-05-27T07:17:07,42.805,6.029,4330,1995,193.842,59.292,13.298
2019-05-27T07:20:07,42.805,6.029,4330,1995,193.923,59.316,13.297
2019-05-27T07:23:07,42.805,6.029,4330,1995,193.888,59.305,13.297
2019-05-27T07:26:07,42.805,6.029,4330,1995,193.977,59.330,13.295
2019-05-27T07:29:07,42.805,6.029,4330,1995,193.787,59.273,13.296
2019-05-27T09:01:30,42.805,6.029,4330,1995,194.134,59.369,13.288
2019-05-27T09:04:30,42.805,6.029,4330,1995,193.984,59.328,13.292
2019-05-27T09:07:30,42.805,6.029,4330,1995,193.934,59.316,13.294
2019-05-27T09:10:30,42.805,6.029,4330,1995,193.956,59.323,13.294
2019-05-27T09:13:30,42.805,6.029,4330,1995,193.926,59.315,13.295
2019-05-27T09:16:30,42.805,6.029,4330,1995,193.841,59.289,13.295
2019-05-27T09:19:30,42.805,6.029,4330,1995,193.882,59.300,13.294
2019-05-27T09:22:30,42.805,6.029,4330,1995,193.897,59.304,13.294
2019-05-27T09:25:30,42.805,6.029,4330,1995,193.790,59.270,13.293
2019-05-27T09:28:30,42.805,6.029,4330,1995,193.777,59.268,13.294
2019-05-27T09:31:30,42.805,6.029,4330,1995,193.956,59.320,13.292
2019-05-27T09:34:30,42.805,6.029,4330,1995,194.002,59.334,13.292
2019-05-27T09:37:30,42.805,6.029,4330,1995,193.912,59.307,13.293
2019-05-27T09:40:30,42.805,6.029,4330,1995,193.944,59.318,13.293
2019-05-27T09:43:30,42.805,6.029,4330,1995,193.999,59.334,13.292
2019-05-27T09:46:30,42.805,6.029,4330,1995,193.931,59.313,13.293
2019-05-27T09:49:30,42.805,6.029,4330,1995,193.870,59.295,13.293
2019-05-27T09:52:30,42.805,6.029,4330,1995,193.756,59.260,13.293
2019-05-27T09:55:30,42.805,6.029,4330,1995,193.889,59.300,13.292
2019-05-27T09:58:30,42.805,6.029,4330,1995,193.815,59.280,13.295
2019-05-27T10:01:30,42.805,6.029,4330,1995,193.866,59.294,13.293
2019-05-27T10:04:30,42.805,6.029,4330,1995,193.918,59.310,13.293
2019-05-27T10:07:30,42.805,6.029,4330,1995,193.931,59.315,13.294
2019-05-27T10:10:30,42.805,6.029,4330,1995,193.917,59.311,13.295
2019-05-27T10:13:30,42.805,6.029,4330,1995,193.859,59.297,13.297
2019-05-27T10:16:30,42.805,6.029,4330,1995,193.704,59.245,13.294
2019-05-27T10:19:30,42.805,6.029,4330,1995,193.772,59.269,13.296
2019-05-27T10:22:30,42.805,6.029,4330,1995,193.722,59.256,13.298
2019-05-27T10:25:30,42.805,6.029,4330,1995,193.771,59.270,13.297
2019-05-27T10:28:30,42.805,6.029,4330,1995,193.714,59.253,13.297
2019-05-27T10:31:30,42.805,6.029,4330,1995,193.559,59.211,13.301
2019-05-27T10:34:30,42.805,6.029,4330,1995,193.571,59.206,13.295
2019-05-27T10:37:30,42.805,6.029,4330,1995,193.642,59.232,13.299
2019-05-27T10:40:30,42.805,6.029,4330,1995,193.650,59.233,13.298
2019-05-27T10:43:30,42.805,6.029,4330,1995,193.669,59.236,13.295
2019-05-27T10:46:30,42.805,6.029,4330,1995,194.095,59.365,13.294
2019-05-27T10:49:30,42.805,6.029,4330,1995,194.096,59.365,13.294
2019-05-27T10:52:30,42.805,6.029,4330,1995,194.038,59.349,13.295
2019-05-27T10:55:30,42.805,6.029,4330,1995,193.880,59.303,13.297
2019-05-27T10:58:30,42.805,6.029,4330,1995,193.879,59.305,13.299
2019-05-27T11:01:30,42.805,6.029,4330,1995,193.959,59.328,13.297
2019-05-27T11:04:30,42.805,6.029,4330,1995,193.787,59.274,13.297
2019-05-27T11:07:30,42.805,6.029,4330,1995,193.550,59.201,13.296
2019-05-27T11:10:30,42.805,6.029,4330,1995,193.473,59.178,13.297
2019-05-27T11:13:30,42.805,6.029,4330,1995,193.368,59.149,13.299
2019-05-27T11:16:30,42.805,6.029,4330,1995,193.199,59.096,13.298
2019-05-27T11:19:30,42.805,6.029,4330,1995,193.268,59.118,13.298
2019-05-27T11:22:30,42.805,6.029,4330,1995,193.424,59.165,13.298
2019-05-27T11:25:30,42.805,6.029,4330,1995,193.319,59.130,13.296
2019-05-27T11:28:30,42.805,6.029,4330,1995,193.314,59.128,13.295
2019-05-27T11:31:30,42.805,6.029,4330,1995,193.420,59.162,13.297
2019-05-27T11:34:30,42.805,6.029,4330,1995,193.559,59.204,13.296
2019-05-27T11:37:30,42.805,6.029,4330,1995,193.421,59.160,13.295
2019-05-27T11:40:30,42.805,6.029,4330,1995,193.349,59.139,13.295
2019-05-27T11:43:30,42.805,6.029,4330,1995,193.365,59.142,13.295
2019-05-27T11:46:30,42.805,6.029,4330,1995,193.389,59.150,13.294
2019-05-27T11:49:30,42.805,6.029,4330,1995,193.426,59.160,13.294
2019-05-27T11:52:30,42.805,6.029,4330,1995,193.410,59.158,13.296
2019-05-27T11:55:30,42.805,6.029,4330,1995,193.590,59.208,13.292
2019-05-27T11:58:30,42.805,6.029,4330,1995,193.746,59.257,13.293
2019-05-27T12:01:30,42.805,6.029,4330,1995,193.721,59.250,13.293
2019-05-27T12:04:30,42.805,6.029,4330,1995,193.790,59.275,13.297
2019-05-27T12:07:30,42.805,6.029,4330,1995,193.688,59.239,13.293
2019-05-27T12:10:29,42.805,6.029,4330,1995,193.768,59.267,13.296
2019-05-27T12:13:30,42.805,6.029,4330,1995,193.566,59.206,13.297
2019-05-27T12:16:30,42.805,6.029,4330,1995,193.707,59.251,13.297
2019-05-27T12:19:30,42.805,6.029,4330,1995,193.717,59.253,13.297
2019-05-27T12:22:30,42.805,6.029,4330,1995,193.732,59.256,13.296
2019-05-27T12:25:30,42.805,6.029,4330,1995,193.788,59.276,13.298
2019-05-27T12:28:30,42.805,6.029,4330,1995,193.687,59.245,13.297
2019-05-27T12:31:30,42.805,6.029,4330,1995,193.607,59.223,13.300
2019-05-27T12:34:30,42.805,6.029,4330,1995,193.484,59.183,13.298
2019-05-27T12:37:30,42.805,6.029,4330,1995,193.624,59.226,13.298
2019-05-27T12:40:30,42.805,6.029,4330,1995,193.571,59.208,13.297
2019-05-27T12:43:30,42.805,6.029,4330,1995,193.533,59.193,13.294
2019-05-27T12:46:30,42.805,6.029,4330,1995,193.644,59.231,13.298
2019-05-27T12:49:29,42.805,6.029,4330,1995,193.657,59.238,13.300
2019-05-27T12:52:29,42.805,6.029,4330,1995,193.617,59.226,13.299
2019-05-27T12:55:29,42.805,6.029,4330,1995,193.714,59.255,13.299
2019-05-27T12:58:29,42.805,6.029,4330,1995,193.761,59.268,13.298
2019-05-27T13:01:29,42.805,6.029,4330,1995,193.707,59.253,13.299
2019-05-27T13:04:29,42.805,6.029,4330,1995,193.696,59.251,13.300
2019-05-27T13:07:29,42.805,6.029,4330,1995,193.700,59.248,13.297
2019-05-27T13:10:29,42.805,6.029,4330,1995,193.819,59.285,13.297
2019-05-27T13:13:29,42.805,6.029,4330,1995,193.719,59.259,13.301
2019-05-27T13:16:29,42.805,6.029,4330,1995,193.558,59.202,13.295
2019-05-27T13:19:29,42.805,6.029,4330,1995,193.586,59.216,13.299
2019-05-27T13:22:29,42.805,6.029,4330,1995,193.445,59.171,13.298
2019-05-27T13:25:29,42.805,6.029,4330,1995,193.453,59.172,13.296
2019-05-27T13:28:29,42.805,6.029,4330,1995,193.655,59.236,13.298
2019-05-27T13:31:29,42.805,6.029,4330,1995,193.654,59.233,13.296
2019-05-27T13:34:29,42.805,6.029,4330,1995,193.721,59.250,13.294
2019-05-27T13:37:29,42.805,6.029,4330,1995,193.820,59.280,13.294
2019-05-27T13:40:29,42.805,6.029,4330,1995,193.987,59.332,13.294
2019-05-27T13:43:29,42.805,6.029,4330,1995,193.927,59.312,13.293
2019-05-27T13:46:29,42.805,6.029,4330,1995,193.922,59.314,13.296
2019-05-27T13:49:29,42.805,6.029,4330,1995,193.789,59.271,13.294
2019-05-27T13:52:29,42.805,6.029,4330,1995,193.733,59.253,13.293
2019-05-27T13:55:29,42.805,6.029,4330,1995,193.818,59.280,13.294
2019-05-27T13:58:29,42.805,6.029,4330,1995,193.965,59.322,13.292
2019-05-27T14:01:29,42.805,6.029,4330,1995,194.000,59.333,13.292
2019-05-27T14:04:29,42.805,6.029,4330,1995,193.900,59.302,13.291
2019-05-27T14:07:29,42.805,6.029,4330,1995,193.951,59.319,13.293
2019-05-27T14:10:29,42.805,6.029,4330,1995,194.012,59.336,13.292
2019-05-27T14:13:29,42.805,6.029,4330,1995,194.009,59.336,13.292
2019-05-27T14:16:29,42.805,6.029,4330,1995,194.022,59.339,13.291
2019-05-27T14:19:29,42.805,6.029,4330,1995,194.072,59.355,13.292
2019-05-27T14:22:29,42.805,6.029,4330,1995,194.133,59.373,13.292
2019-05-27T14:25:29,42.805,6.029,4330,1995,194.129,59.373,13.293
2019-05-27T14:28:29,42.805,6.029,4330,1995,194.060,59.353,13.293
2019-05-27T14:31:29,42.805,6.029,4330,1995,194.013,59.338,13.292
2019-05-27T14:34:29,42.805,6.029,4330,1995,194.008,59.337,13.293
2019-05-27T14:37:29,42.805,6.029,4330,1995,193.966,59.325,13.294
2019-05-27T14:40:29,42.805,6.029,4330,1995,194.026,59.343,13.293
2019-05-27T14:43:29,42.805,6.029,4330,1995,194.113,59.369,13.293
2019-05-27T14:46:29,42.805,6.029,4330,1995,194.020,59.346,13.297
2019-05-27T14:49:29,42.805,6.029,4330,1995,194.131,59.374,13.293
2019-05-27T14:52:29,42.805,6.029,4330,1995,194.031,59.347,13.295
2019-05-27T14:55:29,42.805,6.029,4330,1995,193.978,59.330,13.295
2019-05-27T14:58:29,42.805,6.029,4330,1995,193.870,59.296,13.294
2019-05-27T15:01:29,42.805,6.029,4330,1995,193.902,59.307,13.295
2019-05-27T15:04:29,42.805,6.029,4330,1995,193.834,59.286,13.295
2019-05-27T15:07:29,42.805,6.029,4330,1995,193.874,59.298,13.295
2019-05-27T15:10:29,42.805,6.029,4330,1995,193.727,59.254,13.296
2019-05-27T15:13:29,42.805,6.029,4330,1995,193.765,59.268,13.297
2019-05-27T15:16:29,42.805,6.029,4330,1995,193.803,59.278,13.296
2019-05-27T15:19:29,42.805,6.029,4330,1995,193.873,59.301,13.297
2019-05-27T15:22:29,42.805,6.029,4330,1995,193.836,59.288,13.296
2019-05-27T15:25:29,42.805,6.029,4330,1995,193.712,59.251,13.297
2019-05-27T15:28:29,42.805,6.029,4330,1995,193.664,59.237,13.297
2019-05-27T15:31:29,42.805,6.029,4330,1995,193.651,59.232,13.296
2019-05-27T15:34:29,42.805,6.029,4330,1995,193.601,59.218,13.298
2019-05-27T15:37:29,42.805,6.029,4330,1995,193.809,59.282,13.298
2019-05-27T15:40:29,42.805,6.029,4330,1995,193.857,59.297,13.297
2019-05-27T15:43:29,42.805,6.029,4330,1995,193.849,59.292,13.295
2019-05-27T15:46:29,42.805,6.029,4330,1995,193.951,59.321,13.294
2019-05-27T15:49:29,42.805,6.029,4330,1995,193.907,59.308,13.294
2019-05-27T15:52:29,42.805,6.029,4330,1995,193.834,59.285,13.294
2019-05-27T15:55:29,42.805,6.029,4330,1995,193.935,59.316,13.294
2019-05-27T15:58:29,42.805,6.029,4330,1995,194.090,59.363,13.293
2019-05-27T16:01:29,42.805,6.029,4330,1995,194.071,59.359,13.295
2019-05-27T16:04:29,42.805,6.029,4330,1995,194.123,59.373,13.294
2019-05-27T16:07:29,42.805,6.029,4330,1995,194.133,59.375,13.293
2019-05-27T16:10:29,42.805,6.029,4330,1995,194.064,59.357,13.295
2019-05-27T16:13:29,42.805,6.029,4330,1995,194.166,59.384,13.292
2019-05-27T16:16:29,42.805,6.029,4330,1995,194.026,59.344,13.294
2019-05-27T16:19:29,42.805,6.029,4330,1995,194.054,59.352,13.294
2019-05-27T16:22:29,42.805,6.029,4330,1995,194.129,59.375,13.294
2019-05-27T16:25:29,42.805,6.029,4330,1995,194.070,59.356,13.293
2019-05-27T16:28:29,42.805,6.029,4330,1995,194.087,59.361,13.293
2019-05-27T16:31:29,42.805,6.029,4330,1995,194.113,59.367,13.291
2019-05-27T16:34:29,42.805,6.029,4330,1995,193.913,59.307,13.293
2019-05-27T16:37:29,42.805,6.029,4330,1995,194.078,59.359,13.294
2019-05-27T16:40:29,42.805,6.029,4330,1995,194.138,59.377,13.294
2019-05-27T16:43:29,42.805,6.029,4330,1995,194.117,59.371,13.293
2019-05-27T16:46:29,42.805,6.029,4330,1995,194.074,59.356,13.292
2019-05-27T16:49:29,42.805,6.029,4330,1995,194.076,59.357,13.293
2019-05-27T16:52:29,42.805,6.029,4330,1995,193.979,59.328,13.293
2019-05-27T16:55:29,42.805,6.029,4330,1995,194.112,59.370,13.294
2019-05-27T16:58:29,42.805,6.029,4330,1995,194.057,59.354,13.295
2019-05-27T17:01:29,42.805,6.029,4330,1995,194.060,59.353,13.293
2019-05-27T17:04:29,42.805,6.029,4330,1995,194.099,59.367,13.295
2019-05-27T17:07:29,42.805,6.029,4330,1995,194.062,59.355,13.294
2019-05-27T17:10:29,42.805,6.029,4330,1995,193.978,59.326,13.291
2019-05-27T17:13:29,42.805,6.029,4330,1995,193.863,59.292,13.292
2019-05-27T17:16:29,42.805,6.029,4330,1995,193.921,59.312,13.294
2019-05-27T17:19:29,42.805,6.029,4330,1995,194.128,59.372,13.292
2019-05-27T17:22:29,42.805,6.029,4330,1995,194.023,59.342,13.293
2019-05-27T17:25:29,42.805,6.029,4330,1995,194.028,59.343,13.293
2019-05-27T17:28:29,42.805,6.029,4330,1995,194.080,59.358,13.292
2019-05-27T17:31:29,42.805,6.029,4330,1995,193.997,59.335,13.294
2019-05-27T17:34:29,42.805,6.029,4330,1995,194.193,59.394,13.293
2019-05-27T17:37:29,42.805,6.029,4330,1995,194.136,59.376,13.293
2019-05-27T17:40:29,42.805,6.029,4330,1995,194.185,59.390,13.292
2019-05-27T17:43:29,42.805,6.029,4330,1995,194.068,59.356,13.294
2019-05-27T17:46:29,42.805,6.029,4330,1995,194.037,59.346,13.293
2019-05-27T17:49:29,42.805,6.029,4330,1995,194.087,59.360,13.292
2019-05-27T17:52:29,42.805,6.029,4330,1995,194.118,59.370,13.293
2019-05-27T17:55:29,42.805,6.029,4330,1995,194.214,59.399,13.293
2019-05-27T17:58:29,42.805,6.029,4330,1995,194.148,59.378,13.292
2019-05-27T18:01:29,42.805,6.029,4330,1995,194.079,59.356,13.291
2019-05-27T18:04:29,42.805,6.029,4330,1995,194.124,59.372,13.293
2019-05-27T18:07:29,42.805,6.029,4330,1995,194.148,59.381,13.294
2019-05-27T18:10:29,42.805,6.029,4330,1995,194.191,59.390,13.291
2019-05-27T18:13:29,42.805,6.029,4330,1995,194.230,59.402,13.291
2019-05-27T18:16:29,42.805,6.029,4330,1995,194.280,59.417,13.290
2019-05-27T18:19:29,42.805,6.029,4330,1995,194.265,59.411,13.290
2019-05-27T18:22:29,42.805,6.029,4330,1995,194.319,59.427,13.289
2019-05-27T18:25:29,42.805,6.029,4330,1995,194.178,59.385,13.290
2019-05-27T18:28:29,42.805,6.029,4330,1995,194.279,59.415,13.289
2019-05-27T18:31:29,42.805,6.029,4330,1995,194.268,59.411,13.289
2019-05-27T18:34:29,42.805,6.029,4330,1995,194.320,59.427,13.289
2019-05-27T18:37:29,42.805,6.029,4330,1995,194.233,59.401,13.289
2019-05-27T18:40:29,42.805,6.029,4330,1995,194.190,59.387,13.289
2019-05-27T18:43:29,42.805,6.029,4330,1995,194.368,59.441,13.289
2019-05-27T18:46:29,42.805,6.029,4330,1995,194.463,59.471,13.289
2019-05-27T18:49:29,42.805,6.029,4330,1995,194.365,59.441,13.289
2019-05-27T18:52:29,42.805,6.029,4330,1995,194.368,59.443,13.290
2019-05-27T18:55:29,42.805,6.029,4330,1995,194.371,59.443,13.289
2019-05-27T18:58:29,42.805,6.029,4330,1995,194.452,59.467,13.289
2019-05-27T19:01:29,42.805,6.029,4330,1995,194.471,59.473,13.289
2019-05-27T19:04:29,42.805,6.029,4330,1995,194.504,59.484,13.289
2019-05-27T19:07:29,42.805,6.029,4330,1995,194.435,59.463,13.289
2019-05-27T19:10:29,42.805,6.029,4330,1995,194.426,59.460,13.289
2019-05-27T19:13:29,42.805,6.029,4330,1995,194.529,59.491,13.289
2019-05-27T19:16:29,42.805,6.029,4330,1995,194.536,59.494,13.290
2019-05-27T19:19:29,42.805,6.029,4330,1995,194.470,59.474,13.290
2019-05-27T19:22:29,42.805,6.029,4330,1995,194.398,59.451,13.289
2019-05-27T19:25:29,42.805,6.029,4330,1995,194.473,59.475,13.289
2019-05-27T19:28:29,42.805,6.029,4330,1995,194.578,59.507,13.290
2019-05-27T19:31:29,42.805,6.029,4330,1995,194.597,59.512,13.290
2019-05-27T19:34:29,42.805,6.029,4330,1995,194.479,59.476,13.289
2019-05-27T19:37:29,42.805,6.029,4330,1995,194.733,59.554,13.290